Weather History for Upington, South Africa

Change the Weather History Date:

Friday, August 30, 2013

  Actual Average Record
Temperature  
Mean Temperature 48 °F -  
Max Temperature 55 °F 78 °F 91 °F (2010)
Min Temperature 40 °F 48 °F 33 °F (2006)
Degree Days  
Heating Degree Days 18    
Moisture  
Dew Point 30 °F    
Average Humidity 55    
Maximum Humidity 87    
Minimum Humidity 14    
Precipitation  
Precipitation 0.00 in 0.01 in - ()
Sea Level Pressure  
Sea Level Pressure 30.02 in    
Wind  
Wind Speed 8 mph ()    
Max Wind Speed 15 mph    
Max Gust Speed -    
Visibility 6.9 miles    
Events Rain    
Averages and records for this station are not official NWS values.
T = Trace of Precipitation, MM = Missing Value Source: Averaged Metar Reports

Daily Weather History Graph

Daily Weather History Graph

Search for Another Location

Airport:

Trip Planner

Search our weather history database for the weather conditions in past years. The results will help you decide how hot, cold, wet, or windy it might be!

Date:

Astronomy

Aug. 30, 2013 Rise Set
Actual Time 6:51 AM SAST 6:20 PM SAST
Civil Twilight 6:27 AM SAST 6:43 PM SAST
Nautical Twilight 6:00 AM SAST 7:11 PM SAST
Astronomical Twilight 5:32 AM SAST 7:38 PM SAST
Moon 2:23 AM SAST (8/30) 1:14 PM SAST (8/30)
Length of Visible Light 12h 16m
Length of Day
11h 28m
Waning Crescent, 31% of the Moon is Illuminated
Aug 30
Waning Crescent
Sep 5
New
Sep 12
First Quarter
Sep 19
Full
Sep 27
Last Quarter

Hourly Weather History & Observations

Time (SAST) Temp. Windchill Dew Point Humidity Pressure Visibility Wind Dir Wind Speed Gust Speed Precip Events Conditions
12:00 AM 46.4 °F 41.9 °F 35.6 °F 66% 29.95 in - SW 9.2 mph - N/A   Unknown
1:00 AM 46.4 °F 42.4 °F 37.4 °F 71% 29.95 in 6.2 mi SSW 8.1 mph - N/A   Scattered Clouds
2:00 AM 44 °F - 40 °F 79%  in 12 mi South 5.8 mph - - Rain Light Rain
2:00 AM 42.8 °F 39.3 °F 39.2 °F 87% 29.95 in 6.2 mi South 5.8 mph - N/A   Scattered Clouds
3:00 AM 42.8 °F 41.1 °F 39.2 °F 87% 29.95 in 6.2 mi South 3.5 mph - N/A   Scattered Clouds
4:00 AM 42.8 °F 40.1 °F 37.4 °F 81% 29.95 in 6.2 mi SSW 4.6 mph - N/A   Scattered Clouds
5:00 AM 43 °F - 38 °F 77%  in 16 mi SW 6.9 mph - -   Partly Cloudy
5:00 AM 41.0 °F 37.1 °F 37.4 °F 87% 29.95 in 6.2 mi SW 5.8 mph - N/A   Scattered Clouds
6:00 AM 41.0 °F 35.2 °F 35.6 °F 81% 29.98 in 6.2 mi SW 9.2 mph - N/A   Scattered Clouds
7:00 AM 39.2 °F 34.2 °F 33.8 °F 81% 30.01 in 6.2 mi SW 6.9 mph - N/A   Scattered Clouds
8:00 AM 42 °F - 34 °F 64%  in 25 mi SW 6.9 mph - -   Partly Cloudy
8:00 AM 41.0 °F 36.4 °F 33.8 °F 76% 30.04 in 6.2 mi SW 6.9 mph - N/A   Scattered Clouds
9:00 AM 42.8 °F 36.6 °F 32.0 °F 66% 30.04 in 6.2 mi SW 11.5 mph - N/A   Partly Cloudy
10:00 AM 44.6 °F 38.8 °F 30.2 °F 57% 30.04 in 6.2 mi SW 11.5 mph - N/A   Scattered Clouds
10:35 AM 48.2 °F - 30.2 °F 50% 30.04 in 6.2 mi WSW 11.5 mph - N/A   Scattered Clouds
11:00 AM 48 °F - 28 °F 33%  in 25 mi WSW 12.7 mph - -   Partly Cloudy
11:00 AM 46.4 °F 40.7 °F 28.4 °F 50% 30.04 in 6.2 mi WSW 12.7 mph - N/A   Scattered Clouds
12:00 PM 50.0 °F - 26.6 °F 40% 30.04 in 6.2 mi WSW 12.7 mph - N/A   Scattered Clouds
1:00 PM 50.0 °F - 23.0 °F 35% 30.01 in 6.2 mi WSW 13.8 mph - N/A   Mostly Cloudy
2:00 PM 52 °F - 23 °F 20%  in 25 mi West 15.0 mph - -   Mostly Cloudy
2:00 PM 51.8 °F - 24.8 °F 35% 30.01 in 6.2 mi West 15.0 mph - N/A   Mostly Cloudy
3:00 PM 51.8 °F - 23.0 °F 33% 30.01 in 6.2 mi WSW 15.0 mph - N/A   Scattered Clouds
4:00 PM 53.6 °F - 19.4 °F 26% 30.01 in 6.2 mi SW 12.7 mph - N/A   Scattered Clouds
5:00 PM 55 °F - 20 °F 14%  in 25 mi SW 13.8 mph - -   Partly Cloudy
5:00 PM 53.6 °F - 21.2 °F 28% 30.01 in 6.2 mi SW 13.8 mph - N/A   Scattered Clouds
6:00 PM 50.0 °F - 23.0 °F 35% 30.04 in 6.2 mi WSW 13.8 mph - N/A   Partly Cloudy
7:00 PM 46.4 °F 40.4 °F 23.0 °F 40% 30.06 in 6.2 mi WSW 13.8 mph - N/A   Partly Cloudy
8:00 PM 46 °F - 26 °F 32%  in 25 mi WSW 15.0 mph - -   Scattered Clouds
8:00 PM 44.6 °F 38.1 °F 26.6 °F 49% 30.06 in 6.2 mi WSW 13.8 mph - N/A   Partly Cloudy
9:00 PM 42.8 °F 38.0 °F 28.4 °F 57% 30.09 in - WSW 8.1 mph - N/A   Unknown
10:00 PM 41.0 °F 37.1 °F 28.4 °F 61% 30.12 in - West 5.8 mph - N/A   Unknown
11:00 PM 41 °F - 29 °F 51%  in - West 8.1 mph - -  
11:00 PM 41.0 °F 35.8 °F 30.2 °F 65% 30.12 in - West 8.1 mph - N/A   Unknown